Stations météo

réclame
Mon MeteoGroup
Stockholm/Arlanda, Suède (2460): Température de l'air & dewpoint: 28.07.2020 13:00:00 - 03.08.2020 13:00:00 (CEST)Stockholm/Arlanda, Suède (2460): Vitesse du vent: 28.07.2020 13:00:00 - 03.08.2020 13:00:00 (CEST)Stockholm/Arlanda, Suède (2460): Direction du vent: 28.07.2020 13:00:00 - 03.08.2020 13:00:00 (CEST)Stockholm/Arlanda, Suède (2460): reduced air pressure: 28.07.2020 13:00:00 - 03.08.2020 13:00:00 (CEST)Stockholm/Arlanda, Suède (2460): visibility: 28.07.2020 13:00:00 - 03.08.2020 13:00:00 (CEST)
Date & Time tt [°C] td [°C] ff [km/h] ff [knt] dd ppp [hPa] vv [km]
03.08.2020 13:00:00 17,5 9,9 18 10 SW 1005,4 45
03.08.2020 12:00:00 16,1 9,3 22 12 SW 1005,4 45
03.08.2020 11:00:00 15,9 9,6 22 12 SW 1005,3 40
03.08.2020 10:00:00 15,9 10,2 22 12 SW 1005,2 45
03.08.2020 09:00:00 15,2 10,2 18 10 WSW 1005,3 27
03.08.2020 08:00:00 14,0 10,6 18 10 SW 1005,3 35
03.08.2020 07:00:00 13,6 11,1 11 6 WSW 1005,1 30
03.08.2020 06:00:00 13,1 11,5 11 6 WSW 1005,2 30
03.08.2020 05:00:00 12,7 11,4 11 6 WSW 1005,1 35
03.08.2020 04:00:00 13,1 11,3 7 4 SW 1005,2 45
03.08.2020 03:00:00 13,8 11,8 14 8 SW 1005,4 45
03.08.2020 02:00:00 14,0 11,9 7 4 SW 1005,5 50
03.08.2020 01:00:00 14,9 12,9 11 6 WSW 1005,6 50
03.08.2020 00:00:00 16,1 14,5 14 8 WSW 1005,3 50
02.08.2020 23:00:00 16,8 14,6 11 6 SSW 1005,3 40
02.08.2020 22:00:00 16,6 14,1 11 6 S 1005,3 45
02.08.2020 21:00:00 17,2 13,9 11 6 S 1005,4 45
02.08.2020 20:00:00 17,7 13,4 14 8 S 1005,7 50
02.08.2020 19:00:00 18,8 12,3 18 10 S 1006,0 50
02.08.2020 18:00:00 20,3 12,0 22 12 S 1006,3 45
02.08.2020 17:00:00 21,9 11,9 22 12 SSW 1006,7 45
02.08.2020 16:00:00 22,6 7,9 25 14 S 1007,2 50
02.08.2020 15:00:00 21,6 6,7 22 12 S 1008,0 50
02.08.2020 14:00:00 22,5 12,2 14 8 SSW 1008,0 45
02.08.2020 13:00:00 21,8 13,2 11 6 SSW 1008,5 45
02.08.2020 12:00:00 22,4 14,0 14 8 SSW 1008,9 40
02.08.2020 11:00:00 20,2 14,3 11 6 S 1009,6 40
02.08.2020 10:00:00 19,2 14,2 11 6 S 1009,8 40
02.08.2020 09:00:00 18,8 14,1 11 6 S 1010,0 45
02.08.2020 08:00:00 17,8 13,5 11 6 S 1010,3 40
02.08.2020 07:00:00 16,0 13,1 11 6 S 1010,7 50
02.08.2020 06:00:00 14,6 12,5 7 4 SE 1011,1 50
02.08.2020 05:00:00 13,8 11,8 11 6 S 1011,6 50
02.08.2020 04:00:00 14,8 11,6 7 4 S 1012,2 50
02.08.2020 03:00:00 15,0 11,2 7 4 SE 1012,6 45
02.08.2020 02:00:00 15,1 11,1 11 6 S 1013,1 50
02.08.2020 01:00:00 15,4 10,4 7 4 S 1013,7 50
02.08.2020 00:00:00 15,5 10,3 11 6 S 1014,0 50
01.08.2020 23:00:00 16,8 10,9 14 8 S 1014,3 50
01.08.2020 22:00:00 17,6 10,9 11 6 SSW 1014,6 50
01.08.2020 21:00:00 19,4 9,3 14 8 S 1014,6 50
01.08.2020 20:00:00 19,5 11,5 11 6 S 1015,0 50
01.08.2020 19:00:00 21,6 10,7 18 10 SE 1015,2 45
01.08.2020 18:00:00 23,1 9,5 7 4 S 1015,4 50
01.08.2020 17:00:00 24,6 9,7 4 2 W 1015,7 50
01.08.2020 16:00:00 23,7 9,3 4 2 S 1016,0 40
01.08.2020 15:00:00 23,9 9,8 4 2 S 1016,5 50
01.08.2020 14:00:00 23,0 9,4 4 2 SSE 1017,0 40
01.08.2020 13:00:00 22,7 8,4 4 2 E 1017,4 35
01.08.2020 12:00:00 21,9 8,8 11 6 ENE 1017,7 40
01.08.2020 11:00:00 21,1 8,4 4 2 E 1017,8 45
01.08.2020 10:00:00 20,1 9,4 7 4 NE 1017,7 50
01.08.2020 09:00:00 18,0 14,1 4 2 NNE 1017,7 40
01.08.2020 08:00:00 16,2 13,8 4 2 N 1017,8 40
01.08.2020 07:00:00 14,0 13,0 4 2 NW 1017,7 40
01.08.2020 06:00:00 11,4 11,0 4 2 N 1017,6 20
01.08.2020 05:00:00 9,3 9,1 4 2 WNW 1017,6 11
01.08.2020 04:00:00 8,9 8,6 4 2 WNW 1017,7 15
01.08.2020 03:00:00 9,3 9,0 4 2 WNW 1017,8 18
01.08.2020 02:00:00 9,7 9,4 4 2 WNW 1017,9 21
01.08.2020 01:00:00 10,2 9,7 7 4 WNW 1017,9 19
01.08.2020 00:00:00 10,7 10,2 4 2 WNW 1017,9 21
31.07.2020 23:00:00 11,2 10,1 4 2 NW 1017,7 19
31.07.2020 22:00:00 12,8 11,5 4 2 N 1017,6 7
31.07.2020 21:00:00 16,4 11,5 7 4 NNW 1017,3 50
31.07.2020 20:00:00 18,2 11,5 11 6 N 1016,9 50
31.07.2020 19:00:00 19,0 11,6 11 6 N 1016,8 40
31.07.2020 18:00:00 19,1 11,6 11 6 NNW 1016,5 45
31.07.2020 17:00:00 19,0 12,3 14 8 N 1016,4 35
31.07.2020 16:00:00 18,5 12,3 11 6 N 1016,2 50
31.07.2020 15:00:00 18,2 12,6 18 10 N 1015,8 45
31.07.2020 14:00:00 17,9 12,6 18 10 NNW 1015,4 45
31.07.2020 13:00:00 17,8 12,7 18 10 NNW 1015,1 45
31.07.2020 12:00:00 17,6 12,1 22 12 N 1014,7 35
31.07.2020 11:00:00 17,6 13,5 14 8 N 1014,1 45
31.07.2020 10:00:00 15,7 13,0 18 10 N 1013,6 45
31.07.2020 09:00:00 15,4 13,6 18 10 N 1012,8 40
31.07.2020 08:00:00 14,6 13,3 14 8 N 1012,0 45
31.07.2020 07:00:00 14,1 13,3 14 8 N 1011,1 45
31.07.2020 06:00:00 13,4 12,6 18 10 N 1010,2 45
31.07.2020 05:00:00 13,0 12,5 14 8 N 1009,3 30
31.07.2020 04:00:00 13,2 12,7 14 8 N 1008,4 45
31.07.2020 03:00:00 13,5 12,7 18 10 NNE 1007,0 45
31.07.2020 02:00:00 13,6 13,1 14 8 N 1005,2 6
31.07.2020 01:00:00 13,8 13,3 11 6 NNW 1003,9 10
31.07.2020 00:00:00 14,0 13,5 11 6 W 1003,2 7
30.07.2020 23:00:00 13,8 13,3 11 6 W 1002,9 3,7
30.07.2020 22:00:00 13,8 13,3 14 8 W 1002,8 5
30.07.2020 21:00:00 13,9 13,4 14 8 W 1002,7 18
30.07.2020 20:00:00 13,8 13,3 14 8 W 1002,6 10
30.07.2020 19:00:00 14,1 13,3 14 8 WSW 1002,9 14
30.07.2020 18:00:00 14,8 13,0 14 8 W 1002,9 25
30.07.2020 17:00:00 15,0 13,7 11 6 WSW 1003,4 45
30.07.2020 16:00:00 15,3 13,3 11 6 SW 1003,1 50
30.07.2020 15:00:00 18,8 11,6 22 12 WSW 1002,2 45
30.07.2020 14:00:00 19,5 11,5 18 10 W 1002,7 45
30.07.2020 13:00:00 18,9 11,0 18 10 W 1002,9 45
30.07.2020 12:00:00 18,7 11,0 22 12 W 1003,0 35
30.07.2020 11:00:00 17,4 10,3 18 10 WSW 1003,1 45
30.07.2020 10:00:00 16,8 11,1 14 8 WSW 1003,0 50
30.07.2020 09:00:00 15,7 10,9 11 6 W 1002,9 40
30.07.2020 08:00:00 14,5 11,5 11 6 W 1002,7 40
30.07.2020 07:00:00 13,3 11,9 11 6 W 1002,3 45
30.07.2020 06:00:00 13,0 12,1 7 4 W 1002,1 45
30.07.2020 05:00:00 12,7 11,6 4 2 NW 1001,6 50
30.07.2020 04:00:00 12,9 11,6 4 2 N 1001,4 50
30.07.2020 03:00:00 13,2 10,9 7 4 S 1001,4 50
30.07.2020 02:00:00 13,6 10,9 11 6 S 1001,7 50
30.07.2020 01:00:00 14,0 11,3 7 4 S 1002,3 50
30.07.2020 00:00:00 13,8 11,1 11 6 SSW 1002,6 50
29.07.2020 23:00:00 13,7 10,3 11 6 SSW 1003,1 50
29.07.2020 22:00:00 14,5 10,3 18 10 SSW 1003,1 50
29.07.2020 21:00:00 14,9 9,7 11 6 S 1003,4 45
29.07.2020 20:00:00 16,1 11,1 11 6 S 1003,6 50
29.07.2020 19:00:00 16,0 10,7 11 6 S 1003,9 50
29.07.2020 18:00:00 16,4 10,7 14 8 SSW 1004,2 50
29.07.2020 17:00:00 16,6 10,7 22 12 S 1004,3 45
29.07.2020 16:00:00 17,4 9,8 18 10 SSW 1004,4 45
29.07.2020 15:00:00 16,5 10,1 14 8 SW 1004,5 45
29.07.2020 14:00:00 15,3 10,5 11 6 SW 1004,8 45
29.07.2020 13:00:00 16,5 9,4 18 10 SW 1004,6 40
29.07.2020 12:00:00 15,8 9,2 18 10 SW 1004,7 50
29.07.2020 11:00:00 16,7 9,4 14 8 SW 1004,8 40
29.07.2020 10:00:00 15,2 10,0 18 10 SW 1004,4 45
29.07.2020 09:00:00 15,0 11,2 11 6 WSW 1004,1 45
29.07.2020 08:00:00 14,2 11,5 11 6 WSW 1003,9 28
29.07.2020 07:00:00 13,2 11,8 7 4 SW 1003,5 25
29.07.2020 06:00:00 11,6 11,1 7 4 SW 1003,6 26
29.07.2020 05:00:00 11,5 11,0 4 2 SW 1003,7 24
29.07.2020 04:00:00 11,9 11,1 11 6 SW 1003,6 29
29.07.2020 03:00:00 12,3 11,8 11 6 SW 1003,3 23
29.07.2020 02:00:00 12,8 12,0 11 6 WSW 1003,1 30
29.07.2020 01:00:00 13,9 13,1 11 6 WSW 1002,7 35
29.07.2020 00:00:00 15,8 15,6 7 4 SSW 1002,6 12
28.07.2020 23:00:00 15,7 15,5 7 4 SSW 1002,8 22
28.07.2020 22:00:00 15,6 15,1 14 8 ESE 1003,1 12
28.07.2020 21:00:00 15,4 14,4 14 8 ESE 1003,8 40
28.07.2020 20:00:00 15,4 13,8 18 10 ESE 1004,4 27
28.07.2020 19:00:00 16,9 12,6 22 12 ESE 1005,1 50
28.07.2020 18:00:00 17,0 13,5 18 10 ESE 1005,6 45
28.07.2020 17:00:00 16,5 14,3 11 6 ESE 1006,5 40
28.07.2020 16:00:00 17,7 12,4 25 14 SSE 1007,2 27
28.07.2020 15:00:00 18,6 12,1 18 10 SE 1007,5 50
28.07.2020 14:00:00 18,7 11,8 22 12 SE 1008,0 45
28.07.2020 13:00:00 18,3 10,6 22 12 SE 1008,5 50

tt = Température de l'air
td = dewpoint
ff = Vitesse du vent
dd = Direction du vent
ppp = reduced air pressure
vv = visibility

stations d'obs. à proximité